Back to catalog

AMAZONAS 2

AliveCommunicationsGEO
NORAD 35942·PAYLOAD·🇧🇷 Brazil

Launched Sep 30, 2009 from Guiana Space Centre

Loading…

TLE

FreshSource: Space-Track

Epoch: Sep 14, 2026, 11:44 UTC

1 35942U 09054A   26257.48955277 -.00000267  00000-0  00000-0 0  9996
2 35942   2.0401  81.7982 0003281  84.0790 291.8262  1.00273497 62088

Track AMAZONAS 2 in real time with AllMySat

Download on the App Store